www.pogodaiklimat.ru

Погода и климат >> Архив погоды >> Россия >> Кабардино-Балкария >> Прохладный


ПОГОДА в Прохладный

  • Прогноз погоды в Прохладный
  • Монитор погоды в Прохладный

АРХИВ ПОГОДЫ в Прохладный

Время (UTC), дата Ветер
(напр.,м/с)
 
Видим.   Явления Облачность Т
(С)
Тd
(С)
f
(%)
Тe
(С)
Тes
(С)
Комфортность P
(гПа)
Po
(гПа)
Тmin
(С)
Tmax
(С)
R
(мм)
R24
(мм)
S
(см)
15 11.02 СВ 2 20 км 10/10 600 м
[Sc]
+4.0 +2.3 89 +1 +1 1023.8 999.0 +6.4
18 11.02 СВ 1 20 км 6/0
[Ci fib]
+2.3 +0.8 90 +1 +1 1024.4 999.3
21 11.02 СВ 1 4000 м дымка ясно +0.1 -0.3 97 -2 -2 1023.6 998.4
00 12.02 СВ 2 4000 м дымка 10/10 600 м
[Sc]
-0.7 -1.7 93 -5 -5 1023.4 998.1
03 12.02 СВ 2 4000 м дымка 10/10 600 м
[Sc]
-1.6 -2.4 94 -6 -6 1023.4 998.0 -1.7
06 12.02 СВ 2 4000 м дымка 10/10 600 м
[Sc]
-0.9 -1.2 98 -5 -5 1023.4 998.1 -1.7
09 12.02 СВ 3 20 км 10/10 600 м
[Sc]
+0.8 -0.9 88 -4 -4 1022.9 997.8
12 12.02 В 3 20 км 10/10 600 м
[Sc]
+3.0 -0.4 78 -1 -1 1021.6 996.7
15 12.02 В 2 20 км 4/3 600 м
[Sc Ci sp]
+1.2 -2.3 77 -2 -2 1022.4 997.3 +3.4
18 12.02 СВ 2 20 км ясно -2.0 -3.3 91 -6 -6 1023.2 997.8
21 12.02 СВ 3 4000 м дымка 10/10 600 м
[Sc]
-2.2 -2.9 95 -7 -7 1023.3 997.9
00 13.02 СВ 2 4000 м дымка 10/10 600 м
[Sc]
-1.8 -2.4 96 -6 -6 1024.4 999.0
03 13.02 В 2 4000 м дымка 10/10 600 м
[Sc]
-1.4 -2.4 93 -5 -5 1024.6 999.2 -2.2
06 13.02 В 2 4000 м дымка 10/10 600 м
[Sc]
-0.7 -2.0 91 -5 -5 1025.7 1000.3
09 13.02 В 2 20 км 10/10 600 м
[Sc]
+1.8 -1.5 79 -1 -1 1025.6 1000.5
12 13.02 В 2 20 км 10/10 600 м
[Sc]
+1.7 -1.8 78 -1 -1 1025.5 1000.4
15 13.02 В 1 20 км 10/10 600 м
[Sc]
+1.5 -1.2 82 -0 -0 1025.3 1000.2 +2.0
18 13.02 штиль 0 20 км 10/10 600 м
[Sc]
+1.4 -1.1 83 0 0 1025.0 999.8
21 13.02 штиль 0 20 км 10/10 600 м
[Sc]
+1.3 -0.6 87 0 0 1024.6 999.4
00 14.02 ЮЗ 1 20 км 10/10 600 м
[Sc]
+1.2 -0.4 89 -1 -1 1024.4 999.3
03 14.02 СЗ 1 4000 м дымка 10/10 600 м
[Sc]
+0.1 -1.1 92 -2 -2 1024.6 999.3 +0.1
06 14.02 ЮЗ 2 4000 м дымка 10/10 300 м
[St]
+0.7 +0.1 96 -3 -3 1025.5 1000.3 -0.1
09 14.02 С 2 4000 м дымка 10/10 600 м
[Sc]
+2.0 +1.2 94 -1 -1 1024.8 999.7
12 14.02 С 1 4000 м дымка 10/10 600 м
[Sc]
+2.0 +1.0 93 0 0 1024.0 998.9
15 14.02 СВ 1 4000 м дымка 10/10 600 м
[Sc]
+1.6 +1.0 96 -0 -0 1024.2 999.1 +2.3 0.0
18 14.02 С 1 4000 м дымка {ливн. осадки} 10/10 600 м
[Cb cap]
+1.0 +0.2 94 -1 -1 1024.1 998.9
21 14.02 СЗ 1 4000 м дымка 10/10 600 м
[Cb cap]
+1.0 0.0 93 -1 -1 1023.6 998.5
00 15.02 СЗ 2 4000 м слаб. ливневой дождь 10/10 600 м
[Cb cap]
+1.2 +0.7 96 -2 -2 1023.5 998.4
03 15.02 СЗ 2 2000 м слаб. ливневой дождь 10/10 600 м
[Cb cap]
+0.7 +0.4 98 -3 -3 1024.0 998.8 +0.6 0.4
06 15.02 С 1 500 м слаб. ливневой дождь со снегом {туман} туман ?/? +0.9 +0.7 99 -1 -1 1024.6 999.4 +0.6
09 15.02 С 2 4000 м слаб. ливневой дождь {туман} 10/10 600 м
[Cb cap]
+1.2 +1.0 99 -2 -2 1024.3 999.2
12 15.02 С 1 4000 м дымка {ливн. осадки, туман} 10/10 600 м
[Sc]
+0.8 +0.7 99 -1 -1 1023.8 998.6
15 15.02 С 2 4000 м дымка 10/10
[Sc]
+0.6 +0.3 98 -3 -3 1024.1 998.9 +1.2 0.7
18 15.02 СЗ 2 1000 м слаб. ливневой дождь 10/10 600 м
[Cb cap]
+0.5 +0.3 99 -3 -3 1024.5 999.3
21 15.02 СЗ 2 4000 м дымка {ливн. осадки} 10/10 600 м
[Cb cap]
+0.2 +0.1 99 -4 -4 1022.3 997.2
00 16.02 СЗ 1 4000 м дымка {ливн. осадки} 10/10 600 м
[Sc]
+0.1 0.0 99 -2 -2 1021.4 996.2
03 16.02 штиль 0 4000 м дымка 9/9 600 м
[Sc]
-0.2 -0.6 97 -2 -2 1021.0 995.8 -0.2 0.7
06 16.02 З 2 4000 м дымка 10/10 600 м
[Cb cap]
+0.1 -0.6 95 -4 -4 1021.6 996.4 -0.8
09 16.02 З 2 20 км 9/9 600 м
[Cb cap]
+3.3 -1.9 69 +1 +1 1019.7 994.9
12 16.02 Ю 1 20 км 10/10 600 м
[Sc]
+5.6 -0.7 64 +5 +5 1017.1 992.5
15 16.02 СВ 1 20 км 10/10 600 м
[Sc]
+4.6 -0.7 68 +4 +4 1018.0 993.3 +5.7
18 16.02 СЗ 3 20 км 10/10 600 м
[Sc]
+2.2 -4.9 59 -1 -1 1020.4 995.4
21 16.02 З 2 4000 м слаб. ливневой снег 10/10 600 м
[Cb cap]
+0.4 -0.7 92 -3 -3 1021.2 996.1
00 17.02 ЮЗ 1 4000 м дымка {ливн. осадки} 10/10 600 м
[Cb cap]
+0.3 -0.5 94 -2 -2 1020.0 994.9
03 17.02 З 4 20 км 10/10 600 м
[Sc]
+1.8 -1.5 79 -3 -3 1020.0 995.0 +0.3 0.3
06 17.02 ЮВ 1 20 км 10/10 600 м
[Sc]
+1.2 -0.5 88 -1 -1 1021.2 996.1
09 17.02 ЮЗ 2 20 км 9/9 600 м
[Sc diur, vesp]
+5.1 -0.6 67 +3 +4 1019.3 994.6
12 17.02 ЮВ 1 20 км ясно +7.9 -0.6 55 +8 +11 1015.7 991.4
15 17.02 Ю 1 20 км ясно +5.8 -0.7 63 +5 +5 1013.9 989.4 +8.7
18 17.02 ЮЗ 2 20 км 9/0
[Ac trans]
+4.1 -0.4 72 +2 +2 1012.8 988.2
21 17.02 ЮЗ 2 20 км 3/0
[Ac trans]
+3.2 -0.3 78 0 0 1010.6 986.0
00 18.02 З 1 20 км ясно +1.5 -0.9 84 -0 -0 1009.1 984.4
03 18.02 ЮЗ 2 20 км ясно +0.9 -1.6 83 -3 -3 1007.6 982.8 0.0
06 18.02 З 3 20 км 10/10 600 м
[Cb cap]
+6.5 -0.4 61 +4 +4 1008.2 984.0
09 18.02 СЗ 5-13
{14}
20 км 10/10 600 м
[Cb cap]
+9.6 +0.3 52 +7 +7 1008.4 984.4
12 18.02 З 4
{15}
20 км 10/10 600 м
[Cb cap]
+5.1 -0.1 69 +1 +1 1011.2 986.7

 

Местоположение метеостанции Прохладный (Кабардино-Балкария, Россия): широта 43.75 долгота 44.05 высота над уровнем моря 200 м.

В архиве по умолчанию представлена погода в Прохладный за последнюю неделю. Архивные данные за месяц целиком и за предыдущие месяцы, начиная с января 2011 года, Вы можете получить, выбрав интересующий диапазон дат из раскрывающегося списка и нажав кнопку "Ввод!".


*Определитесь, кто Вы:
робот инопланетянин человек

Внимание! Время в таблицах - всемирное. Для получения местного времени необходимо прибавить поправку, которая равна 3 ч.

Смотрите также архив погоды в соседних городах и на ближайших метеорологических станциях:

Погода в Нальчике (Кабардино-Балкария, Россия) (42 км)
Погода в Моздоке (Северная Осетия, Россия) (50 км)
Погода в Георгиевске (Ставропольский край, Россия) (64 км)
Погода в Зеленокумске (Ставропольский край, Россия) (77 км)
Погода в Алагире (Северная Осетия, Россия) (77 км)
Погода в Минеральных Водах (Ставропольский край, Россия) (92 км)
Погода в Назрани (Ингушетия, Россия) (93 км)
Погода в Владикавказе (Северная Осетия, Россия) (95 км)
Погода в Тырныаузе (Кабардино-Балкария, Россия) (100 км)
Погода в Рощино (Ставропольский край, Россия) (102 км)

Пояснения к столбцам:

Ветер - указаны скорость ветра в м/с - средняя за 10 мин, порывы в срок и между сроками (в фигурных скобках) и направление, откуда дует ветер: С - северный, СВ - северо-восточный, В - восточный, ЮВ - юго-восточный, Ю - южный, ЮЗ - юго-западный, З - западный, СЗ - северо-западный.
Видимость - горизонтальная дальность видимости в метрах или километрах. При видимости от 1 до 10 км при отсутствии осадков обычно наблюдается дымка, при ухудшении видимости до 1 км и менее - туман. В сухую погоду видимость может ухудшаться дымом, пылью или мглою.
Явления - указаны атмосферные явления, наблюдавшиеся в срок или в последний час перед сроком; фигурными скобками обозначены явления, наблюдавшиеся между сроками (за 1-3 часа до срока); квадратными скобками обозначены град или гололедные отложения с указанием их диаметра в мм.
Облачность - указаны через наклонную черту общая и нижняя облачность в баллах и высота нижней границы облаков в метрах; квадратными скобками обозначены формы облаков: Ci - перистые, Cs - перисто-слоистые, Cc - перисто-кучевые, Ac - высококучевые, As - высокослоистые, Sc - слоисто-кучевые, Ns - слоисто-дождевые, Cu - кучевые, Cb - кучево-дождевые. Подробнее классификацию облаков см. в Атласе облаков (PDF).
T - Температура воздуха - температура, измеренная на высоте 2 м над землей.
Td - Температура точки росы - температура, при понижении до которой содержащийся в воздухе водяной пар достигнет насыщения.
f - Относительная влажность воздуха - влажноcть воздуха, измеренная на высоте 2 м над землей.
Te - Эффективная температура - температура, которую ощущает одетый по сезону человек в тени. Характеристика душности погоды. При расчете учитывается влияние влажности воздуха и скорости ветра на теплоощущения человека.
Tes - Эффективная температура на солнце - температура, которую ощущает человек, с поправкой на солнечный нагрев. Характеристика знойности погоды. Зависит от высоты солнца над горизонтом, облачности и скорости ветра. Ночью, в пасмурную погоду, а также при ветре 12 м/с и более поправка равна нулю.
P - Атмосферное давление - приведенное к уровню моря атмосферное давление.
Po - Атмосферное давление - измеренное на уровне метеостанции атмосферное давление.
Tmin - Минимальная температура - минимум температуры воздуха на высоте 2 м над землей.
Tmax - Максимальная температура - максимум температуры воздуха на высоте 2 м над землей.
R - Количество осадков - Количество выпавших осадков за период времени, мм. При наведении курсора мыши на число - период времени, за который выпало указанное количество осадков.
R24 - Количество осадков - Количество выпавших осадков за 24 часа, мм.
S - Снежный покров - Высота снежного покрова, см. При наведении курсора мыши на число - состояние снежного покрова и степень покрытия местности в баллах.